This is the latest recevied weather packets stored in our database for station/object KB3AWQ. If no packets are shown the sender has not sent any weather packets the latest 10 day(s).
| Time | Temp. | Humidity | Pressure | Rain* | Wind** | Luminosity | Snow |
|---|---|---|---|---|---|---|---|
| 1777721366 | 6.67° C | 89% | 1014.9 hPa | 0 mm | - | 140 W/m² | - |
| 1777721067 | 6.67° C | 89% | 1014.9 hPa | 0 mm | - | 146 W/m² | - |
| 1777720766 | 7.22° C | 89% | 1015 hPa | 0 mm | - | 131 W/m² | - |
| 1777720467 | 6.67° C | 90% | 1015.1 hPa | 0 mm | - | 115 W/m² | - |
| 1777720167 | 6.11° C | 94% | 1015 hPa | 0 mm | - | 91 W/m² | - |
| 1777719867 | 5.56° C | 97% | 1014.9 hPa | 0 mm | - | 82 W/m² | - |
| 1777719567 | 5° C | 97% | 1015 hPa | 0 mm | - | 73 W/m² | - |
| 1777719266 | 4.44° C | 98% | 1014.9 hPa | 0 mm | - | 64 W/m² | - |
| 1777718968 | 4.44° C | 99% | 1014.9 hPa | 0 mm | - | 50 W/m² | - |
| 1777718668 | 3.89° C | 99% | 1014.8 hPa | 0 mm | - | 43 W/m² | - |
| 1777718366 | 3.33° C | 99% | 1014.7 hPa | 0 mm | - | 35 W/m² | - |
| 1777718066 | 3.33° C | 100% | 1014.7 hPa | 0 mm | - | 27 W/m² | - |
| 1777717766 | 3.33° C | 100% | 1014.6 hPa | 0 mm | - | 18 W/m² | - |
| 1777717467 | 3.33° C | 99% | 1014.5 hPa | 0 mm | - | 15 W/m² | - |
| 1777717167 | 3.33° C | 99% | 1014.3 hPa | 0 mm | - | 11 W/m² | - |
| 1777716866 | 3.33° C | 98% | 1014.2 hPa | 0 mm | - | 7 W/m² | - |
| 1777716566 | 3.33° C | 98% | 1014.1 hPa | 0 mm | - | 5 W/m² | - |
| 1777716267 | 3.89° C | 98% | 1014.1 hPa | 0 mm | - | 3 W/m² | - |
| 1777715690 | 3.89° C | 98% | 1014.1 hPa | 0 mm | - | 1 W/m² | - |
| 1777715366 | 4.44° C | 97% | 1014.1 hPa | 0 mm | - | 0 W/m² | - |
| 1777715067 | 4.44° C | 97% | 1014.1 hPa | 0 mm | - | 0 W/m² | - |
| 1777714767 | 4.44° C | 97% | 1014 hPa | 0 mm | - | 0 W/m² | - |
| 1777714467 | 4.44° C | 96% | 1013.9 hPa | 0 mm | - | 0 W/m² | - |
| 1777714166 | 4.44° C | 96% | 1013.9 hPa | 0 mm | - | 0 W/m² | - |
| 1777713868 | 5° C | 96% | 1013.9 hPa | 0 mm | - | 0 W/m² | - |
* Rain latest hour (hover to see other rain measurements)
** Current wind speed in m/s (hover to see current wind gust speed)